FW6635 Weather Reports


Display with metric or nautical units.
time (UTC)temp
F
wind
direction
speed
MPH
gust
MPH
rain 1hr
in
rain 24hr
in
rain mn
in
humidity
%
barometer
mb
20260503211553 72 223 1.0 5.0 0.00 0.01 0.01 41 1018.2
20260503210051 72 294 2.0 9.0 0.00 0.01 0.01 42 1018.4
20260503204550 71 0 4.0 12.0 0.00 0.01 0.01 40 1018.3
20260503203052 71 19 1.0 7.0 0.00 0.01 0.01 40 1018.4
20260503201552 72 233 4.0 11.0 0.00 0.01 0.01 39 1018.6
20260503200052 72 284 4.0 11.0 0.00 0.01 0.01 40 1018.9
20260503194557 72 290 2.0 13.0 0.00 0.07 0.01 40 1019.1
20260503193050 71 153 3.0 10.0 0.00 0.07 0.01 44 1019.3
20260503191600 70 205 5.0 15.0 0.00 0.07 0.01 42 1019.7
20260503190050 71 303 3.0 9.0 0.00 0.07 0.01 44 1020.0
20260503184552 72 200 3.0 9.0 0.00 0.07 0.01 47 1020.2
20260503183055 71 271 6.0 11.0 0.00 0.07 0.01 45 1020.5
20260503181604 70 285 6.0 11.0 0.00 0.07 0.01 45 1020.6
20260503180050 70 268 4.0 10.0 0.00 0.07 0.01 49 1020.6
20260503174553 70 232 6.0 12.0 0.00 0.08 0.01 48 1020.7
20260503173054 69 273 5.0 10.0 0.00 0.08 0.01 51 1020.7
20260503171553 68 286 3.0 10.0 0.00 0.08 0.01 51 1020.9
20260503170110 67 327 1.0 6.0 0.00 0.08 0.01 54 1021.1
20260503120105 48 0 0.0 1.0 0.01 0.43 0.01 97 1020.7
20260503081553 46 0 0.0 0.0 0.00 0.74 0.00 96 1018.9
20260503071553 47 0 0.0 0.0 0.00 0.83 0.00 96 1018.3
20260503054550 50 0 0.0 0.0 0.00 0.99 0.00 96 1017.8
20260503053051 51 0 0.0 0.0 0.00 0.99 0.00 96 1017.9
20260503051548 51 0 0.0 0.0 0.00 0.99 0.00 96 1018.1
20260503050050 51 0 0.0 0.0 0.00 0.99 0.00 96 1018.0
20260503044635 51 0 0.0 0.0 0.00 0.99 0.00 96 1018.0
20260503043053 51 0 0.0 2.0 0.00 0.99 0.00 96 1017.5
20260503041609 51 347 1.0 2.0 0.00 0.99 0.00 96 1017.6
20260503040053 51 0 0.0 0.0 0.00 0.99 0.00 96 1017.8
20260503034547 51 0 0.0 2.0 0.00 0.99 0.99 96 1017.9
20260503033101 51 0 0.0 3.0 0.00 0.99 0.99 96 1017.8
20260503031552 52 0 0.0 0.0 0.00 0.99 0.99 96 1017.2
20260503030045 52 0 0.0 0.0 0.00 0.99 0.99 96 1017.4
20260503024559 51 0 0.0 0.0 0.00 0.99 0.99 96 1016.9
20260503023056 51 0 0.0 0.0 0.00 0.99 0.99 96 1016.7
20260503021554 52 0 0.0 0.0 0.00 0.99 0.99 96 1016.3
20260503020056 51 0 0.0 0.0 0.00 0.99 0.99 96 1016.2
20260503014553 51 0 0.0 0.0 0.00 0.99 0.99 96 1016.0
20260503013051 52 0 0.0 0.0 0.00 0.99 0.99 96 1015.8
20260503011553 52 0 0.0 0.0 0.00 0.99 0.99 96 1015.6
20260503010058 51 0 0.0 0.0 0.00 0.99 0.99 95 1015.5
20260503004551 51 0 0.0 0.0 0.00 0.99 0.99 95 1015.2
20260503003055 52 0 0.0 0.0 0.00 0.99 0.99 94 1015.0
20260503001613 53 0 0.0 0.0 0.00 0.99 0.99 94 1015.1
20260503000113 54 0 0.0 0.0 0.00 0.99 0.99 92 1014.8
20260502234558 55 89 0.0 3.0 0.00 0.99 0.99 88 1014.5
20260502233050 56 89 0.0 4.0 0.00 0.99 0.99 88 1014.1
20260502231553 56 58 4.0 9.0 0.00 0.99 0.99 87 1014.0
20260502230049 57 86 1.0 5.0 0.00 0.99 0.99 88 1014.1
20260502224554 56 54 2.0 5.0 0.00 0.99 0.99 89 1014.0
20260502223049 56 34 0.0 4.0 0.00 0.99 0.99 89 1013.9
20260502221547 55 37 2.0 7.0 0.00 0.99 0.99 88 1013.8
20260502220133 55 109 3.0 8.0 0.00 0.99 0.99 89 1013.7
20260502214550 55 51 3.0 6.0 0.00 0.99 0.99 91 1013.8
20260502213048 55 46 4.0 7.0 0.00 0.99 0.99 91 1013.9